Year,Month,Day,Hour,Minute,Value (Times are PST for temperature in C)
2011,04,27,00,00,7.00
2011,04,27,00,01,7.10
2011,04,27,00,02,7.00
2011,04,27,00,03,7.00
2011,04,27,00,04,7.00
2011,04,27,00,05,7.00
2011,04,27,00,06,7.00
2011,04,27,00,07,7.00
2011,04,27,00,08,6.90
2011,04,27,00,09,6.90
2011,04,27,00,10,6.90
2011,04,27,00,11,7.00
2011,04,27,00,12,7.10
2011,04,27,00,13,7.10
2011,04,27,00,14,7.20
2011,04,27,00,15,7.20
2011,04,27,00,16,7.20
2011,04,27,00,17,7.20
2011,04,27,00,18,7.20
2011,04,27,00,19,7.20
2011,04,27,00,20,7.30
2011,04,27,00,21,7.30
2011,04,27,00,22,7.30
2011,04,27,00,23,7.40
2011,04,27,00,24,7.30
2011,04,27,00,25,7.30
2011,04,27,00,26,7.30
2011,04,27,00,27,7.20
2011,04,27,00,28,7.20
2011,04,27,00,29,7.20
2011,04,27,00,30,7.10
2011,04,27,00,31,7.10
2011,04,27,00,32,7.00
2011,04,27,00,33,6.90
2011,04,27,00,34,6.90
2011,04,27,00,35,6.80
2011,04,27,00,36,6.80
2011,04,27,00,37,6.70
2011,04,27,00,38,6.70
2011,04,27,00,39,6.70
2011,04,27,00,40,6.70
2011,04,27,00,41,6.60
2011,04,27,00,42,6.60
2011,04,27,00,43,6.60
2011,04,27,00,44,6.50
2011,04,27,00,45,6.50
2011,04,27,00,46,6.50
2011,04,27,00,47,6.50
2011,04,27,00,48,6.40
2011,04,27,00,49,6.40
2011,04,27,00,50,6.40
2011,04,27,00,51,6.30
2011,04,27,00,52,6.30
2011,04,27,00,53,6.30
2011,04,27,00,54,6.20
2011,04,27,00,55,6.20
2011,04,27,00,56,6.20
2011,04,27,00,57,6.10
2011,04,27,00,58,6.10
2011,04,27,00,59,6.10
2011,04,27,01,00,6.10
2011,04,27,01,01,6.00
2011,04,27,01,02,6.00
2011,04,27,01,03,6.00
2011,04,27,01,04,6.00
2011,04,27,01,05,6.00
2011,04,27,01,06,6.00
2011,04,27,01,07,6.00
2011,04,27,01,08,5.90
2011,04,27,01,09,5.90
2011,04,27,01,10,5.90
2011,04,27,01,11,5.90
2011,04,27,01,12,5.90
2011,04,27,01,13,5.90
2011,04,27,01,14,5.90
2011,04,27,01,15,5.90
2011,04,27,01,16,5.90
2011,04,27,01,17,5.90
2011,04,27,01,18,5.90
2011,04,27,01,19,5.80
2011,04,27,01,20,5.80
2011,04,27,01,21,5.80
2011,04,27,01,22,5.80
2011,04,27,01,23,5.80
2011,04,27,01,24,5.80
2011,04,27,01,25,5.80
2011,04,27,01,26,5.80
2011,04,27,01,27,5.80
2011,04,27,01,28,5.80
2011,04,27,01,29,5.80
2011,04,27,01,30,5.80
2011,04,27,01,31,5.80
2011,04,27,01,32,5.80
2011,04,27,01,33,5.80
2011,04,27,01,34,5.80
2011,04,27,01,35,5.80
2011,04,27,01,36,5.90
2011,04,27,01,37,5.90
2011,04,27,01,38,6.00
2011,04,27,01,39,6.00
2011,04,27,01,40,6.10
2011,04,27,01,41,6.20
2011,04,27,01,42,6.20
2011,04,27,01,43,6.30
2011,04,27,01,44,6.40
2011,04,27,01,45,6.40
2011,04,27,01,46,6.40
2011,04,27,01,47,6.40
2011,04,27,01,48,6.30
2011,04,27,01,49,6.30
2011,04,27,01,50,6.30
2011,04,27,01,51,6.30
2011,04,27,01,52,6.20
2011,04,27,01,53,6.20
2011,04,27,01,54,6.10
2011,04,27,01,55,6.10
2011,04,27,01,56,6.10
2011,04,27,01,57,6.10
2011,04,27,01,58,6.00
2011,04,27,01,59,6.00
2011,04,27,02,00,6.00
2011,04,27,02,01,5.90
2011,04,27,02,02,5.90
2011,04,27,02,03,5.90
2011,04,27,02,04,5.90
2011,04,27,02,05,5.80
2011,04,27,02,06,5.80
2011,04,27,02,07,5.80
2011,04,27,02,08,5.80
2011,04,27,02,09,5.80
2011,04,27,02,10,5.80
2011,04,27,02,11,5.80
2011,04,27,02,12,5.80
2011,04,27,02,13,5.80
2011,04,27,02,14,5.80
2011,04,27,02,15,5.80
2011,04,27,02,16,5.80
2011,04,27,02,17,5.80
2011,04,27,02,18,5.80
2011,04,27,02,19,5.80
2011,04,27,02,20,5.80
2011,04,27,02,21,5.80
2011,04,27,02,22,5.80
2011,04,27,02,23,5.80
2011,04,27,02,24,5.80
2011,04,27,02,25,5.80
2011,04,27,02,26,5.80
2011,04,27,02,27,5.80
2011,04,27,02,28,5.80
2011,04,27,02,29,5.80
2011,04,27,02,30,5.80
2011,04,27,02,31,5.80
2011,04,27,02,32,5.80
2011,04,27,02,33,5.80
2011,04,27,02,34,5.80
2011,04,27,02,35,5.80
2011,04,27,02,36,5.80
2011,04,27,02,37,5.80
2011,04,27,02,38,5.80
2011,04,27,02,39,5.80
2011,04,27,02,40,5.80
2011,04,27,02,41,5.80
2011,04,27,02,42,5.80
2011,04,27,02,43,5.80
2011,04,27,02,44,5.80
2011,04,27,02,45,5.80
2011,04,27,02,46,5.80
2011,04,27,02,47,5.80
2011,04,27,02,48,5.80
2011,04,27,02,49,5.90
2011,04,27,02,50,5.80
2011,04,27,02,51,5.80
2011,04,27,02,52,5.80
2011,04,27,02,53,5.90
2011,04,27,02,54,5.90
2011,04,27,02,55,5.90
2011,04,27,02,56,5.90
2011,04,27,02,57,5.90
2011,04,27,02,58,5.90
2011,04,27,02,59,5.90
2011,04,27,03,00,5.90
2011,04,27,03,01,5.90
2011,04,27,03,02,5.90
2011,04,27,03,03,5.90
2011,04,27,03,04,5.90
2011,04,27,03,05,5.90
2011,04,27,03,06,5.90
2011,04,27,03,07,6.00
2011,04,27,03,08,6.00
2011,04,27,03,09,6.00
2011,04,27,03,10,6.00
2011,04,27,03,11,6.00
2011,04,27,03,12,6.00
2011,04,27,03,13,6.00
2011,04,27,03,14,6.00
2011,04,27,03,15,6.10
2011,04,27,03,16,6.10
2011,04,27,03,17,6.10
2011,04,27,03,18,6.10
2011,04,27,03,19,6.10
2011,04,27,03,20,6.10
2011,04,27,03,21,6.10
2011,04,27,03,22,6.10
2011,04,27,03,23,6.20
2011,04,27,03,24,6.20
2011,04,27,03,25,6.20
2011,04,27,03,26,6.20
2011,04,27,03,27,6.20
2011,04,27,03,28,6.20
2011,04,27,03,29,6.30
2011,04,27,03,30,6.30
2011,04,27,03,31,6.30
2011,04,27,03,32,6.30
2011,04,27,03,33,6.30
2011,04,27,03,34,6.30
2011,04,27,03,35,6.30
2011,04,27,03,36,6.30
2011,04,27,03,37,6.30
2011,04,27,03,38,6.30
2011,04,27,03,39,6.30
2011,04,27,03,40,6.30
2011,04,27,03,41,6.30
2011,04,27,03,42,6.20
2011,04,27,03,43,6.20
2011,04,27,03,44,6.20
2011,04,27,03,45,6.20
2011,04,27,03,46,6.20
2011,04,27,03,47,6.20
2011,04,27,03,48,6.20
2011,04,27,03,49,6.30
2011,04,27,03,50,6.20
2011,04,27,03,51,6.20
2011,04,27,03,52,6.20
2011,04,27,03,53,6.20
2011,04,27,03,54,6.20
2011,04,27,03,55,6.20
2011,04,27,03,56,6.20
2011,04,27,03,57,6.20
2011,04,27,03,58,6.20
2011,04,27,03,59,6.20
2011,04,27,04,00,6.10
2011,04,27,04,01,6.10
2011,04,27,04,02,6.10
2011,04,27,04,03,6.10
2011,04,27,04,04,6.10
2011,04,27,04,05,6.10
2011,04,27,04,06,6.10
2011,04,27,04,07,6.10
2011,04,27,04,08,6.10
2011,04,27,04,09,6.10
2011,04,27,04,10,6.10
2011,04,27,04,11,6.10
2011,04,27,04,12,6.10
2011,04,27,04,13,6.00
2011,04,27,04,14,6.00
2011,04,27,04,15,6.00
2011,04,27,04,16,6.00
2011,04,27,04,17,6.00
2011,04,27,04,18,5.90
2011,04,27,04,19,5.90
2011,04,27,04,20,5.90
2011,04,27,04,21,5.90
2011,04,27,04,22,5.90
2011,04,27,04,23,5.90
2011,04,27,04,24,5.90
2011,04,27,04,25,5.90
2011,04,27,04,26,5.90
2011,04,27,04,27,5.90
2011,04,27,04,28,5.90
2011,04,27,04,29,5.90
2011,04,27,04,30,5.90
2011,04,27,04,31,5.90
2011,04,27,04,32,5.90
2011,04,27,04,33,5.90
2011,04,27,04,34,5.90
2011,04,27,04,35,5.90
2011,04,27,04,36,5.90
2011,04,27,04,37,5.90
2011,04,27,04,38,5.80
2011,04,27,04,39,5.80
2011,04,27,04,40,5.80
2011,04,27,04,41,5.80
2011,04,27,04,42,5.80
2011,04,27,04,43,5.80
2011,04,27,04,44,5.80
2011,04,27,04,45,5.80
2011,04,27,04,46,5.80
2011,04,27,04,47,5.80
2011,04,27,04,48,5.80
2011,04,27,04,49,5.80
2011,04,27,04,50,5.80
2011,04,27,04,51,5.80
2011,04,27,04,52,5.70
2011,04,27,04,53,5.70
2011,04,27,04,54,5.70
2011,04,27,04,55,5.70
2011,04,27,04,56,5.70
2011,04,27,04,57,5.70
2011,04,27,04,58,5.70
2011,04,27,04,59,5.70
2011,04,27,05,00,5.80
2011,04,27,05,01,5.90
2011,04,27,05,02,5.90
2011,04,27,05,03,6.00
2011,04,27,05,04,6.10
2011,04,27,05,05,6.10
2011,04,27,05,06,6.10
2011,04,27,05,07,6.20
2011,04,27,05,08,6.20
2011,04,27,05,09,6.20
2011,04,27,05,10,6.20
2011,04,27,05,11,6.20
2011,04,27,05,12,6.30
2011,04,27,05,13,6.40
2011,04,27,05,14,6.50
2011,04,27,05,15,6.50
2011,04,27,05,16,6.60
2011,04,27,05,17,6.60
2011,04,27,05,18,6.70
2011,04,27,05,19,6.70
2011,04,27,05,20,6.70
2011,04,27,05,21,6.70
2011,04,27,05,22,6.80
2011,04,27,05,23,6.80
2011,04,27,05,24,6.80
2011,04,27,05,25,6.80
2011,04,27,05,26,6.80
2011,04,27,05,27,6.80
2011,04,27,05,28,6.80
2011,04,27,05,29,6.80
2011,04,27,05,30,6.80
2011,04,27,05,31,6.80
2011,04,27,05,32,6.80
2011,04,27,05,33,6.80
2011,04,27,05,34,6.80
2011,04,27,05,35,6.80
2011,04,27,05,36,6.80
2011,04,27,05,37,6.80
2011,04,27,05,38,6.70
2011,04,27,05,39,6.70
2011,04,27,05,40,6.70
2011,04,27,05,41,6.60
2011,04,27,05,42,6.60
2011,04,27,05,43,6.60
2011,04,27,05,44,6.50
2011,04,27,05,45,6.50
2011,04,27,05,46,6.50
2011,04,27,05,47,6.50
2011,04,27,05,48,6.40
2011,04,27,05,49,6.40
2011,04,27,05,50,6.40
2011,04,27,05,51,6.40
2011,04,27,05,52,6.40
2011,04,27,05,53,6.40
2011,04,27,05,54,6.40
2011,04,27,05,55,6.50
2011,04,27,05,56,6.50
2011,04,27,05,57,6.50
2011,04,27,05,58,6.50
2011,04,27,05,59,6.50
2011,04,27,06,00,6.50
2011,04,27,06,01,6.50
2011,04,27,06,02,6.50
2011,04,27,06,03,6.50
2011,04,27,06,04,6.50
2011,04,27,06,05,6.40
2011,04,27,06,06,6.40
2011,04,27,06,07,6.40
2011,04,27,06,08,6.40
2011,04,27,06,09,6.40
2011,04,27,06,10,6.40
2011,04,27,06,11,6.30
2011,04,27,06,12,6.30
2011,04,27,06,13,6.30
2011,04,27,06,14,6.30
2011,04,27,06,15,6.30
2011,04,27,06,16,6.30
2011,04,27,06,17,6.20
2011,04,27,06,18,6.20
2011,04,27,06,19,6.20
2011,04,27,06,20,6.20
2011,04,27,06,21,6.20
2011,04,27,06,22,6.20
2011,04,27,06,23,6.10
2011,04,27,06,24,6.10
2011,04,27,06,25,6.10
2011,04,27,06,26,6.10
2011,04,27,06,27,6.10
2011,04,27,06,28,6.10
2011,04,27,06,29,6.10
2011,04,27,06,30,6.20
2011,04,27,06,31,6.30
2011,04,27,06,32,6.40
2011,04,27,06,33,6.50
2011,04,27,06,34,6.50
2011,04,27,06,35,6.60
2011,04,27,06,36,6.70
2011,04,27,06,37,6.80
2011,04,27,06,38,6.80
2011,04,27,06,39,6.80
2011,04,27,06,40,6.80
2011,04,27,06,41,6.80
2011,04,27,06,42,6.70
2011,04,27,06,43,6.70
2011,04,27,06,44,6.70
2011,04,27,06,45,6.70
2011,04,27,06,46,6.60
2011,04,27,06,47,6.60
2011,04,27,06,48,6.60
2011,04,27,06,49,6.60
2011,04,27,06,50,6.50
2011,04,27,06,51,6.50
2011,04,27,06,52,6.50
2011,04,27,06,53,6.40
2011,04,27,06,54,6.40
2011,04,27,06,55,6.40
2011,04,27,06,56,6.30
2011,04,27,06,57,6.30
2011,04,27,06,58,6.40
2011,04,27,06,59,6.40
2011,04,27,07,00,6.40
2011,04,27,07,01,6.40
2011,04,27,07,02,6.40
2011,04,27,07,03,6.40
2011,04,27,07,04,6.40
2011,04,27,07,05,6.40
2011,04,27,07,06,6.50
2011,04,27,07,07,6.50
2011,04,27,07,08,6.50
2011,04,27,07,09,6.60
2011,04,27,07,10,6.60
2011,04,27,07,11,6.70
2011,04,27,07,12,6.80
2011,04,27,07,13,6.80
2011,04,27,07,14,6.90
2011,04,27,07,15,6.90
2011,04,27,07,16,7.00
2011,04,27,07,17,7.00
2011,04,27,07,18,7.10
2011,04,27,07,19,7.10
2011,04,27,07,20,7.20
2011,04,27,07,21,7.20
2011,04,27,07,22,7.20
2011,04,27,07,23,7.20
2011,04,27,07,24,7.10
2011,04,27,07,25,7.10
2011,04,27,07,26,7.10
2011,04,27,07,27,7.10
2011,04,27,07,28,7.10
2011,04,27,07,29,7.10
2011,04,27,07,30,7.10
2011,04,27,07,31,7.10
2011,04,27,07,32,7.10
2011,04,27,07,33,7.10
2011,04,27,07,34,7.10
2011,04,27,07,35,7.10
2011,04,27,07,36,7.10
2011,04,27,07,37,7.10
2011,04,27,07,38,7.10
2011,04,27,07,39,7.10
2011,04,27,07,40,7.10
2011,04,27,07,41,7.10
2011,04,27,07,42,7.10
2011,04,27,07,43,7.10
2011,04,27,07,44,7.10
2011,04,27,07,45,7.10
2011,04,27,07,46,7.10
2011,04,27,07,47,7.10
2011,04,27,07,48,7.10
2011,04,27,07,49,7.10
2011,04,27,07,50,7.20
2011,04,27,07,51,7.20
2011,04,27,07,52,7.20
2011,04,27,07,53,7.20
2011,04,27,07,54,7.20
2011,04,27,07,55,7.20
2011,04,27,07,56,7.20
2011,04,27,07,57,7.20
2011,04,27,07,58,7.20
2011,04,27,07,59,7.20
2011,04,27,08,00,7.20
2011,04,27,08,01,7.20
2011,04,27,08,02,7.30
2011,04,27,08,03,7.30
2011,04,27,08,04,7.30
2011,04,27,08,05,7.40
2011,04,27,08,06,7.40
2011,04,27,08,07,7.40
2011,04,27,08,08,7.50
2011,04,27,08,09,7.50
2011,04,27,08,10,7.60
2011,04,27,08,11,7.60
2011,04,27,08,12,7.70
2011,04,27,08,13,7.70
2011,04,27,08,14,7.70
2011,04,27,08,15,7.70
2011,04,27,08,16,7.80
2011,04,27,08,17,7.90
2011,04,27,08,18,7.90
2011,04,27,08,19,8.00
2011,04,27,08,20,8.10
2011,04,27,08,21,8.20
2011,04,27,08,22,8.20
2011,04,27,08,23,8.20
2011,04,27,08,24,8.20
2011,04,27,08,25,8.20
2011,04,27,08,26,8.30
2011,04,27,08,27,8.30
2011,04,27,08,28,8.30
2011,04,27,08,29,8.30
2011,04,27,08,30,8.40
2011,04,27,08,31,8.40
2011,04,27,08,32,8.40
2011,04,27,08,33,8.40
2011,04,27,08,34,8.50
2011,04,27,08,35,8.50
2011,04,27,08,36,8.50
2011,04,27,08,37,8.50
2011,04,27,08,38,8.50
2011,04,27,08,39,8.60
2011,04,27,08,40,8.60
2011,04,27,08,41,8.60
2011,04,27,08,42,8.70
2011,04,27,08,43,8.70
2011,04,27,08,44,8.70
2011,04,27,08,45,8.70
2011,04,27,08,46,8.80
2011,04,27,08,47,8.80
2011,04,27,08,48,8.80
2011,04,27,08,49,8.80
2011,04,27,08,50,8.90
2011,04,27,08,51,8.90
2011,04,27,08,52,8.90
2011,04,27,08,53,9.00
2011,04,27,08,54,8.90
2011,04,27,08,55,9.00
2011,04,27,08,56,9.00
2011,04,27,08,57,9.00
2011,04,27,08,58,9.00
2011,04,27,08,59,9.00
2011,04,27,09,00,9.00
2011,04,27,09,01,9.00
2011,04,27,09,02,9.00
2011,04,27,09,03,9.00
2011,04,27,09,04,9.00
2011,04,27,09,05,9.10
2011,04,27,09,06,9.10
2011,04,27,09,07,9.10
2011,04,27,09,08,9.20
2011,04,27,09,09,9.20
2011,04,27,09,10,9.30
2011,04,27,09,11,9.40
2011,04,27,09,12,9.50
2011,04,27,09,13,9.50
2011,04,27,09,14,9.60
2011,04,27,09,15,9.70
2011,04,27,09,16,9.70
2011,04,27,09,17,9.80
2011,04,27,09,18,9.80
2011,04,27,09,19,9.80
2011,04,27,09,20,9.80
2011,04,27,09,21,9.80
2011,04,27,09,22,9.80
2011,04,27,09,23,9.90
2011,04,27,09,24,9.90
2011,04,27,09,25,9.90
2011,04,27,09,26,9.90
2011,04,27,09,27,10.00
2011,04,27,09,28,10.00
2011,04,27,09,29,10.10
2011,04,27,09,30,10.10
2011,04,27,09,31,10.10
2011,04,27,09,32,10.10
2011,04,27,09,33,10.10
2011,04,27,09,34,10.10
2011,04,27,09,35,10.20
2011,04,27,09,36,10.30
2011,04,27,09,37,10.30
2011,04,27,09,38,10.30
2011,04,27,09,39,10.30
2011,04,27,09,40,10.30
2011,04,27,09,41,10.30
2011,04,27,09,42,10.30
2011,04,27,09,43,10.30
2011,04,27,09,44,10.30
2011,04,27,09,45,10.30
2011,04,27,09,46,10.30
2011,04,27,09,47,10.30
2011,04,27,09,48,10.30
2011,04,27,09,49,10.30
2011,04,27,09,50,10.30
2011,04,27,09,51,10.40
2011,04,27,09,52,10.40
2011,04,27,09,53,10.40
2011,04,27,09,54,10.40
2011,04,27,09,55,10.40
2011,04,27,09,56,10.50
2011,04,27,09,57,10.50
2011,04,27,09,58,10.60
2011,04,27,09,59,10.60
2011,04,27,10,00,10.60
2011,04,27,10,01,10.60
2011,04,27,10,02,10.60
2011,04,27,10,03,10.60
2011,04,27,10,04,10.60
2011,04,27,10,05,10.60
2011,04,27,10,06,10.70
2011,04,27,10,07,10.70
2011,04,27,10,08,10.70
2011,04,27,10,09,10.70
2011,04,27,10,10,10.70
2011,04,27,10,11,10.70
2011,04,27,10,12,10.70
2011,04,27,10,13,10.60
2011,04,27,10,14,10.60
2011,04,27,10,15,10.60
2011,04,27,10,16,10.60
2011,04,27,10,17,10.60
2011,04,27,10,18,10.60
2011,04,27,10,19,10.60
2011,04,27,10,20,10.60
2011,04,27,10,21,10.70
2011,04,27,10,22,10.70
2011,04,27,10,23,10.70
2011,04,27,10,24,10.60
2011,04,27,10,25,10.70
2011,04,27,10,26,10.70
2011,04,27,10,27,10.70
2011,04,27,10,28,10.60
2011,04,27,10,29,10.50
2011,04,27,10,30,10.30
2011,04,27,10,31,10.30
2011,04,27,10,32,10.20
2011,04,27,10,33,10.10
2011,04,27,10,34,10.10
2011,04,27,10,35,10.00
2011,04,27,10,36,10.00
2011,04,27,10,37,9.90
2011,04,27,10,38,9.90
2011,04,27,10,39,9.90
2011,04,27,10,40,9.90
2011,04,27,10,41,9.90
2011,04,27,10,42,9.90
2011,04,27,10,43,9.90
2011,04,27,10,44,9.90
2011,04,27,10,45,9.80
2011,04,27,10,46,9.80
2011,04,27,10,47,9.80
2011,04,27,10,48,9.70
2011,04,27,10,49,9.70
2011,04,27,10,50,9.60
2011,04,27,10,51,9.60
2011,04,27,10,52,9.60
2011,04,27,10,53,9.50
2011,04,27,10,54,9.50
2011,04,27,10,55,9.40
2011,04,27,10,56,9.40
2011,04,27,10,57,9.30
2011,04,27,10,58,9.30
2011,04,27,10,59,9.30
2011,04,27,11,00,9.20
2011,04,27,11,01,9.20
2011,04,27,11,02,9.20
2011,04,27,11,03,9.10
2011,04,27,11,04,9.10
2011,04,27,11,05,9.00
2011,04,27,11,06,9.00
2011,04,27,11,07,8.90
2011,04,27,11,08,8.90
2011,04,27,11,09,8.90
2011,04,27,11,10,8.80
2011,04,27,11,11,8.80
2011,04,27,11,12,8.80
2011,04,27,11,13,8.70
2011,04,27,11,14,8.70
2011,04,27,11,15,8.70
2011,04,27,11,16,8.70
2011,04,27,11,17,8.60
2011,04,27,11,18,8.50
2011,04,27,11,19,8.50
2011,04,27,11,20,8.40
2011,04,27,11,21,8.30
2011,04,27,11,22,8.30
2011,04,27,11,23,8.30
2011,04,27,11,24,8.30
2011,04,27,11,25,8.30
2011,04,27,11,26,8.30
2011,04,27,11,27,8.30
2011,04,27,11,28,8.30
2011,04,27,11,29,8.30
2011,04,27,11,30,8.30
2011,04,27,11,31,8.30
2011,04,27,11,32,8.20
2011,04,27,11,33,8.30
2011,04,27,11,34,8.30
2011,04,27,11,35,8.30
2011,04,27,11,36,8.30
2011,04,27,11,37,8.30
2011,04,27,11,38,8.30
2011,04,27,11,39,8.30
2011,04,27,11,40,8.30
2011,04,27,11,41,8.20
2011,04,27,11,42,8.20
2011,04,27,11,43,8.20
2011,04,27,11,44,8.20
2011,04,27,11,45,8.30
2011,04,27,11,46,8.20
2011,04,27,11,47,8.20
2011,04,27,11,48,8.20
2011,04,27,11,49,8.20
2011,04,27,11,50,8.20
2011,04,27,11,51,8.20
2011,04,27,11,52,8.20
2011,04,27,11,53,8.20
2011,04,27,11,54,8.20
2011,04,27,11,55,8.20
2011,04,27,11,56,8.10
2011,04,27,11,57,8.10
2011,04,27,11,58,8.10
2011,04,27,11,59,8.10
2011,04,27,12,00,8.10
2011,04,27,12,01,8.10
2011,04,27,12,02,8.10
2011,04,27,12,03,8.10
2011,04,27,12,04,8.10
2011,04,27,12,05,8.10
2011,04,27,12,06,8.10
2011,04,27,12,07,8.10
2011,04,27,12,08,8.10
2011,04,27,12,09,8.10
2011,04,27,12,10,8.10
2011,04,27,12,11,8.10
2011,04,27,12,12,8.10
2011,04,27,12,13,8.10
2011,04,27,12,14,8.10
2011,04,27,12,15,8.10
2011,04,27,12,16,8.10
2011,04,27,12,17,8.10
2011,04,27,12,18,8.10
2011,04,27,12,19,8.10
2011,04,27,12,20,8.10
2011,04,27,12,21,8.10
2011,04,27,12,22,8.10
2011,04,27,12,23,8.10
2011,04,27,12,24,8.00
2011,04,27,12,25,8.00
2011,04,27,12,26,8.00
2011,04,27,12,27,8.00
2011,04,27,12,28,8.00
2011,04,27,12,29,8.00
2011,04,27,12,30,8.00
2011,04,27,12,31,8.00
2011,04,27,12,32,8.00
2011,04,27,12,33,8.00
2011,04,27,12,34,8.00
2011,04,27,12,35,8.00
2011,04,27,12,36,8.00
2011,04,27,12,37,8.00
2011,04,27,12,38,8.00
2011,04,27,12,39,8.00
2011,04,27,12,40,8.00
2011,04,27,12,41,8.00
2011,04,27,12,42,8.00
2011,04,27,12,43,7.90
2011,04,27,12,44,7.90
2011,04,27,12,45,7.90
2011,04,27,12,46,7.90
2011,04,27,12,47,7.90
2011,04,27,12,48,7.90
2011,04,27,12,49,7.80
2011,04,27,12,50,7.80
2011,04,27,12,51,7.80
2011,04,27,12,52,7.80
2011,04,27,12,53,7.80
2011,04,27,12,54,7.80
2011,04,27,12,55,7.70
2011,04,27,12,56,7.50
2011,04,27,12,57,7.40
2011,04,27,12,58,7.30
2011,04,27,12,59,7.00
2011,04,27,13,00,6.80
2011,04,27,13,01,6.50
2011,04,27,13,02,6.30
2011,04,27,13,03,6.20
2011,04,27,13,04,6.10
2011,04,27,13,05,5.90
2011,04,27,13,06,5.90
2011,04,27,13,07,5.80
2011,04,27,13,08,5.70
2011,04,27,13,09,5.60
2011,04,27,13,10,5.50
2011,04,27,13,11,5.40
2011,04,27,13,12,5.30
2011,04,27,13,13,5.20
2011,04,27,13,14,5.20
2011,04,27,13,15,5.20
2011,04,27,13,16,5.10
2011,04,27,13,17,5.10
2011,04,27,13,18,5.10
2011,04,27,13,19,5.10
2011,04,27,13,20,5.10
2011,04,27,13,21,5.10
2011,04,27,13,22,5.10
2011,04,27,13,23,5.10
2011,04,27,13,24,5.10
2011,04,27,13,25,5.10
2011,04,27,13,26,5.20
2011,04,27,13,27,5.20
2011,04,27,13,28,5.20
2011,04,27,13,29,5.20
2011,04,27,13,30,5.20
2011,04,27,13,31,5.20
2011,04,27,13,32,5.30
2011,04,27,13,33,5.30
2011,04,27,13,34,5.40
2011,04,27,13,35,5.40
2011,04,27,13,36,5.50
2011,04,27,13,37,5.50
2011,04,27,13,38,5.50
2011,04,27,13,39,5.50
2011,04,27,13,40,5.50
2011,04,27,13,41,5.60
2011,04,27,13,42,5.60
2011,04,27,13,43,5.70
2011,04,27,13,44,5.70
2011,04,27,13,45,5.80
2011,04,27,13,46,5.80
2011,04,27,13,47,5.90
2011,04,27,13,48,5.90
2011,04,27,13,49,5.90
2011,04,27,13,50,5.90
2011,04,27,13,51,5.90
2011,04,27,13,52,5.90
2011,04,27,13,53,5.90
2011,04,27,13,54,5.90
2011,04,27,13,55,5.90
2011,04,27,13,56,5.90
2011,04,27,13,57,5.90
2011,04,27,13,58,5.90
2011,04,27,13,59,5.90
2011,04,27,14,00,5.90
2011,04,27,14,01,5.90
2011,04,27,14,02,5.90
2011,04,27,14,03,6.00
2011,04,27,14,04,6.00
2011,04,27,14,05,6.00
2011,04,27,14,06,6.00
2011,04,27,14,07,6.00
2011,04,27,14,08,6.00
2011,04,27,14,09,6.00
2011,04,27,14,10,5.90
2011,04,27,14,11,5.90
2011,04,27,14,12,5.90
2011,04,27,14,13,5.90
2011,04,27,14,14,5.90
2011,04,27,14,15,5.90
2011,04,27,14,16,5.90
2011,04,27,14,17,5.90
2011,04,27,14,18,5.90
2011,04,27,14,19,5.90
2011,04,27,14,20,5.90
2011,04,27,14,21,5.90
2011,04,27,14,22,5.90
2011,04,27,14,23,6.00
2011,04,27,14,24,6.00
2011,04,27,14,25,6.00
2011,04,27,14,26,6.10
2011,04,27,14,27,6.10
2011,04,27,14,28,6.10
2011,04,27,14,29,6.10
2011,04,27,14,30,6.10
2011,04,27,14,31,6.20
2011,04,27,14,32,6.20
2011,04,27,14,33,6.20
2011,04,27,14,34,6.20
2011,04,27,14,35,6.20
2011,04,27,14,36,6.10
2011,04,27,14,37,6.10
2011,04,27,14,38,6.10
2011,04,27,14,39,6.10
2011,04,27,14,40,6.10
2011,04,27,14,41,6.10
2011,04,27,14,42,6.10
2011,04,27,14,43,6.00
2011,04,27,14,44,6.00
2011,04,27,14,45,6.00
2011,04,27,14,46,6.00
2011,04,27,14,47,6.00
2011,04,27,14,48,6.00
2011,04,27,14,49,6.00
2011,04,27,14,50,6.00
2011,04,27,14,51,6.00
2011,04,27,14,52,6.00
2011,04,27,14,53,6.10
2011,04,27,14,54,6.10
2011,04,27,14,55,6.10
2011,04,27,14,56,6.10
2011,04,27,14,57,6.10
2011,04,27,14,58,6.10
2011,04,27,14,59,6.10
2011,04,27,15,00,6.10
2011,04,27,15,01,6.10
2011,04,27,15,02,6.10
2011,04,27,15,03,6.10
2011,04,27,15,04,6.20
2011,04,27,15,05,6.20
2011,04,27,15,06,6.20
2011,04,27,15,07,6.20
2011,04,27,15,08,6.20
2011,04,27,15,09,6.20
2011,04,27,15,10,6.20
2011,04,27,15,11,6.20
2011,04,27,15,12,6.20
2011,04,27,15,13,6.20
2011,04,27,15,14,6.20
2011,04,27,15,15,6.20
2011,04,27,15,16,6.20
2011,04,27,15,17,6.20
2011,04,27,15,18,6.20
2011,04,27,15,19,6.20
2011,04,27,15,20,6.20
2011,04,27,15,21,6.20
2011,04,27,15,22,6.20
2011,04,27,15,23,6.20
2011,04,27,15,24,6.20
2011,04,27,15,25,6.20
2011,04,27,15,26,6.20
2011,04,27,15,27,6.20
2011,04,27,15,28,6.20
2011,04,27,15,29,6.20
2011,04,27,15,30,6.20
2011,04,27,15,31,6.20
2011,04,27,15,32,6.20
2011,04,27,15,33,6.20
2011,04,27,15,34,6.20
2011,04,27,15,35,6.20
2011,04,27,15,36,6.20
2011,04,27,15,37,6.30
2011,04,27,15,38,6.30
2011,04,27,15,39,6.30
2011,04,27,15,40,6.30
2011,04,27,15,41,6.30
2011,04,27,15,42,6.40
2011,04,27,15,43,6.40
2011,04,27,15,44,6.40
2011,04,27,15,45,6.40
2011,04,27,15,46,6.40
2011,04,27,15,47,6.50
2011,04,27,15,48,6.50
2011,04,27,15,49,6.50
2011,04,27,15,50,6.60
2011,04,27,15,51,6.60
2011,04,27,15,52,6.60
2011,04,27,15,53,6.60
2011,04,27,15,54,6.60
2011,04,27,15,55,6.60
2011,04,27,15,56,6.50
2011,04,27,15,57,6.50
2011,04,27,15,58,6.50
2011,04,27,15,59,6.50
2011,04,27,16,00,6.50
2011,04,27,16,01,6.50
2011,04,27,16,02,6.50
2011,04,27,16,03,6.50
2011,04,27,16,04,6.50
2011,04,27,16,05,6.50
2011,04,27,16,06,6.50
2011,04,27,16,07,6.50
2011,04,27,16,08,6.50
2011,04,27,16,09,6.50
2011,04,27,16,10,6.50
2011,04,27,16,11,6.60
2011,04,27,16,12,6.60
2011,04,27,16,13,6.50
2011,04,27,16,14,6.60
2011,04,27,16,15,6.60
2011,04,27,16,16,6.60
2011,04,27,16,17,6.50
2011,04,27,16,18,6.50
2011,04,27,16,19,6.50
2011,04,27,16,20,6.50
2011,04,27,16,21,6.50
2011,04,27,16,22,6.50
2011,04,27,16,23,6.50
2011,04,27,16,24,6.50
2011,04,27,16,25,6.50
2011,04,27,16,26,6.40
2011,04,27,16,27,6.40
2011,04,27,16,28,6.40
2011,04,27,16,29,6.40
2011,04,27,16,30,6.40
2011,04,27,16,31,6.40
2011,04,27,16,32,6.40
2011,04,27,16,33,6.30
2011,04,27,16,34,6.30
2011,04,27,16,35,6.30
2011,04,27,16,36,6.30
2011,04,27,16,37,6.30
2011,04,27,16,38,6.30
2011,04,27,16,39,6.30
2011,04,27,16,40,6.30
2011,04,27,16,41,6.30
2011,04,27,16,42,6.30
2011,04,27,16,43,6.30
2011,04,27,16,44,6.30
2011,04,27,16,45,6.30
2011,04,27,16,46,6.30
2011,04,27,16,47,6.30
2011,04,27,16,48,6.30
2011,04,27,16,49,6.30
2011,04,27,16,50,6.30
2011,04,27,16,51,6.30
2011,04,27,16,52,6.30
2011,04,27,16,53,6.30
2011,04,27,16,54,6.30
2011,04,27,16,55,6.30
2011,04,27,16,56,6.30
2011,04,27,16,57,6.30
2011,04,27,16,58,6.30
2011,04,27,16,59,6.30
2011,04,27,17,00,6.20
2011,04,27,17,01,6.20
2011,04,27,17,02,6.20
2011,04,27,17,03,6.20
2011,04,27,17,04,6.30
2011,04,27,17,05,6.30
2011,04,27,17,06,6.30
2011,04,27,17,07,6.30
2011,04,27,17,08,6.30
2011,04,27,17,09,6.30
2011,04,27,17,10,6.30
2011,04,27,17,11,6.40
2011,04,27,17,12,6.40
2011,04,27,17,13,6.40
2011,04,27,17,14,6.40
2011,04,27,17,15,6.40
2011,04,27,17,16,6.40
2011,04,27,17,17,6.40
2011,04,27,17,18,6.40
2011,04,27,17,19,6.40
2011,04,27,17,20,6.40
2011,04,27,17,21,6.50
2011,04,27,17,22,6.50
2011,04,27,17,23,6.50
2011,04,27,17,24,6.50
2011,04,27,17,25,6.60
2011,04,27,17,26,6.60
2011,04,27,17,27,6.70
2011,04,27,17,28,6.70
2011,04,27,17,29,6.70
2011,04,27,17,30,6.70
2011,04,27,17,31,6.80
2011,04,27,17,32,6.80
2011,04,27,17,33,6.80
2011,04,27,17,34,6.80
2011,04,27,17,35,6.80
2011,04,27,17,36,6.80
2011,04,27,17,37,6.90
2011,04,27,17,38,6.90
2011,04,27,17,39,6.90
2011,04,27,17,40,6.90
2011,04,27,17,41,6.90
2011,04,27,17,42,7.00
2011,04,27,17,43,7.00
2011,04,27,17,44,7.00
2011,04,27,17,45,7.10
2011,04,27,17,46,7.10
2011,04,27,17,47,7.20
2011,04,27,17,48,7.20
2011,04,27,17,49,7.20
2011,04,27,17,50,7.20
2011,04,27,17,51,7.20
2011,04,27,17,52,7.20
2011,04,27,17,53,7.20
2011,04,27,17,54,7.20
2011,04,27,17,55,7.30
2011,04,27,17,56,7.30
2011,04,27,17,57,7.30
2011,04,27,17,58,7.30
2011,04,27,17,59,7.30
2011,04,27,18,00,7.30
2011,04,27,18,01,7.20
2011,04,27,18,02,7.20
2011,04,27,18,03,7.20